Weather History for KFLY - October, 2012

Change the Weather History Date:

Wednesday, October 10, 2012

  Actual Average (KCOS) Record (KCOS)
Temperature  
Mean Temperature 48 °F 51 °F  
Max Temperature 61 °F 65 °F 84 °F (1962)
Min Temperature 35 °F 38 °F 17 °F (1946)
Degree Days  
Heating Degree Days 17 14  
Month to date heating degree days 121  
Since 1 July heating degree days 311  
Cooling Degree Days 0 0  
Month to date cooling degree days 0  
Year to date cooling degree days 454  
Moisture  
Dew Point 33 °F    
Average Humidity 66    
Maximum Humidity 92    
Minimum Humidity 33    
Precipitation  
Precipitation 0.00 in 0.03 in 0.42 in (1969)
Month to date precipitation 0.28  
Year to date precipitation 15.26  
Snow  
Snow 0.00 in 0.00 in 0.80 in (1969)
Month to date snowfall 0.5  
Since 1 July snowfall 0.7  
Since 1 September snowfall 0.7  
Snow Depth -    
Sea Level Pressure  
Sea Level Pressure 30.17 in    
Wind  
Wind Speed 10 mph (SSW)    
Max Wind Speed 13 mph    
Max Gust Speed 20 mph    
Visibility 10 miles    
Events      
T = Trace of Precipitation, MM = Missing Value Source: NWS Daily Summary

Daily Weather History Graph

Daily Weather History Graph

Search for Another Location

Airport or City:

Trip Planner

Search our weather history database for the weather conditions in past years. The results will help you decide how hot, cold, wet, or windy it might be!

Date:

Astronomy

Oct. 10, 2012 Rise Set
Actual Time 7:03 AM MDT 6:26 PM MDT
Civil Twilight 6:36 AM MDT 6:52 PM MDT
Nautical Twilight 6:05 AM MDT 7:23 PM MDT
Astronomical Twilight 5:34 AM MDT 7:54 PM MDT
Moon 1:44 AM MDT (10/10) 3:28 PM MDT (10/10)
Length of Visible Light 12h 16m
Length of Day
11h 22m
Waning Crescent, 26% of the Moon is Illuminated
Oct 10
Waning Crescent
Oct 15
New
Oct 21
First Quarter
Oct 29
Full
Nov 6
Last Quarter

Hourly Weather History & Observations

Time (MDT) Temp. Windchill Dew Point Humidity Pressure Visibility Wind Dir Wind Speed Gust Speed Precip Events Conditions
12:12 AM 35.6 °F 27.5 °F 32.9 °F 90% 30.25 in 10.0 mi South 11.5 mph - N/A   Overcast
12:32 AM 35.6 °F 27.1 °F 32.9 °F 90% 30.24 in 10.0 mi South 12.7 mph 17.3 mph N/A   Overcast
12:52 AM 35.6 °F 27.1 °F 32.7 °F 89% 30.24 in 10.0 mi South 12.7 mph - N/A   Overcast
1:12 AM 35.6 °F 27.1 °F 32.9 °F 90% 30.24 in 10.0 mi South 12.7 mph - N/A   Overcast
1:32 AM 35.8 °F 27.8 °F 33.1 °F 90% 30.24 in 10.0 mi SSW 11.5 mph - N/A   Overcast
1:52 AM 35.8 °F 27.8 °F 33.1 °F 90% 30.24 in 10.0 mi SSW 11.5 mph - N/A   Overcast
2:12 AM 35.8 °F 27.8 °F 33.1 °F 90% 30.24 in 10.0 mi SSW 11.5 mph - N/A   Overcast
2:32 AM 35.8 °F 28.3 °F 33.1 °F 90% 30.24 in 10.0 mi SSW 10.4 mph - N/A   Overcast
2:52 AM 36.0 °F 27.5 °F 33.1 °F 89% 30.23 in 10.0 mi SSW 12.7 mph - N/A   Overcast
3:12 AM 36.0 °F 27.5 °F 33.1 °F 89% 30.23 in 10.0 mi SSW 12.7 mph 17.3 mph N/A   Overcast
3:32 AM 36.0 °F 28.0 °F 33.3 °F 90% 30.22 in 10.0 mi SSW 11.5 mph - N/A   Overcast
3:52 AM 36.0 °F 28.0 °F 33.3 °F 90% 30.22 in 10.0 mi SSW 11.5 mph - N/A   Overcast
4:12 AM 36.1 °F 28.7 °F 33.4 °F 90% 30.21 in 10.0 mi SSW 10.4 mph - N/A   Overcast
4:32 AM 36.1 °F 28.2 °F 33.4 °F 90% 30.21 in 10.0 mi SSW 11.5 mph - N/A   Overcast
4:52 AM 36.1 °F 28.2 °F 33.8 °F 91% 30.21 in 10.0 mi SSW 11.5 mph - N/A   Overcast
5:12 AM 36.3 °F 29.5 °F 33.6 °F 90% 30.21 in 10.0 mi SW 9.2 mph - N/A   Overcast
5:32 AM 36.1 °F 28.2 °F 33.4 °F 90% 30.21 in 10.0 mi SW 11.5 mph - N/A   Overcast
5:52 AM 36.0 °F 28.5 °F 33.4 °F 91% 30.21 in 10.0 mi SSW 10.4 mph - N/A   Overcast
6:12 AM 35.6 °F 27.5 °F 33.6 °F 92% 30.21 in 10.0 mi SW 11.5 mph - N/A   Overcast
6:52 AM 35.6 °F 28.6 °F 33.4 °F 92% 30.21 in 10.0 mi SW 9.2 mph - N/A   Overcast
7:32 AM 36.0 °F 29.6 °F 33.8 °F 92% 30.21 in 10.0 mi SW 8.1 mph - N/A   Overcast
7:52 AM 36.0 °F 29.0 °F 33.6 °F 91% 30.21 in 10.0 mi WSW 9.2 mph - N/A   Overcast
8:12 AM 36.5 °F 29.7 °F 33.6 °F 89% 30.22 in 10.0 mi SSW 9.2 mph - N/A   Overcast
8:32 AM 37.0 °F 31.6 °F 34.0 °F 89% 30.22 in 10.0 mi SW 6.9 mph - N/A   Overcast
8:52 AM 37.4 °F 30.8 °F 34.0 °F 87% 30.22 in 10.0 mi SSW 9.2 mph - N/A   Overcast
9:12 AM 39.9 °F 35.1 °F 34.0 °F 79% 30.22 in 10.0 mi SW 6.9 mph - N/A   Overcast
9:32 AM 41.4 °F 36.8 °F 34.0 °F 75% 30.22 in 10.0 mi SSW 6.9 mph - N/A   Scattered Clouds
9:52 AM 43.9 °F 38.8 °F 34.7 °F 70% 30.21 in 10.0 mi South 9.2 mph - N/A   Clear
10:12 AM 45.5 °F 43.2 °F 34.3 °F 65% 30.21 in 10.0 mi SSW 4.6 mph - N/A   Clear
10:52 AM 50.2 °F - 34.7 °F 55% 30.20 in 10.0 mi SSW 6.9 mph - N/A   Clear
11:12 AM 51.4 °F - 34.5 °F 52% 30.20 in 10.0 mi South 9.2 mph 19.6 mph N/A   Clear
11:23 AM 48.4 °F - 34.0 °F 58% 30.20 in 10.0 mi South 6.9 mph - N/A   Clear
11:42 AM 48.4 °F - 34.0 °F 58% 30.19 in 10.0 mi SSW 3.5 mph - N/A   Clear
12:02 PM 52.0 °F - 34.3 °F 51% 30.18 in 10.0 mi SSW 6.9 mph - N/A   Clear
12:24 PM 52.3 °F - 34.3 °F 50% 30.18 in 10.0 mi SSW 8.1 mph - N/A   Clear
12:43 PM 55.2 °F - 34.2 °F 45% 30.17 in 10.0 mi SW 4.6 mph - N/A   Clear
1:04 PM 57.2 °F - 33.6 °F 41% 30.15 in 10.0 mi SSW 6.9 mph - N/A   Clear
1:23 PM 59.7 °F - 33.1 °F 37% 30.14 in 10.0 mi SSE 9.2 mph 16.1 mph N/A   Clear
1:43 PM 60.6 °F - 33.1 °F 36% 30.13 in 10.0 mi South 10.4 mph - N/A   Clear
2:03 PM 60.1 °F - 32.4 °F 35% 30.12 in 10.0 mi South 10.4 mph - N/A   Clear
2:23 PM 60.3 °F - 32.2 °F 35% 30.12 in 10.0 mi South 8.1 mph 16.1 mph N/A   Clear
2:42 PM 56.3 °F - 33.4 °F 42% 30.12 in 10.0 mi SSW 6.9 mph - N/A   Clear
3:02 PM 59.0 °F - 33.1 °F 38% 30.11 in 10.0 mi South 8.1 mph - N/A   Clear
3:23 PM 60.1 °F - 32.9 °F 36% 30.10 in 10.0 mi South 8.1 mph - N/A   Clear
3:43 PM 60.1 °F - 32.7 °F 36% 30.10 in 10.0 mi SSE 8.1 mph 16.1 mph N/A   Clear
4:01 PM 60.4 °F - 32.7 °F 35% 30.10 in 10.0 mi South 9.2 mph 17.3 mph N/A   Clear
4:21 PM 61.0 °F - 32.5 °F 34% 30.09 in 10.0 mi SSW 6.9 mph 17.3 mph N/A   Scattered Clouds
5:00 PM 61.2 °F - 31.5 °F 33% 30.10 in 10.0 mi South 11.5 mph - N/A   Mostly Cloudy
5:21 PM 59.9 °F - 31.1 °F 34% 30.10 in 10.0 mi SSE 5.8 mph - N/A   Overcast
6:00 PM 53.8 °F - 31.8 °F 43% 30.10 in 10.0 mi SSW 11.5 mph - N/A   Scattered Clouds
6:21 PM 52.7 °F - 32.0 °F 45% 30.10 in 7.0 mi SSW 12.7 mph - N/A   Mostly Cloudy
6:39 PM 51.1 °F - 32.2 °F 48% 30.10 in 10.0 mi SSW 6.9 mph - N/A   Overcast
6:58 PM 49.6 °F - 32.2 °F 51% 30.11 in 10.0 mi SW 4.6 mph - N/A   Mostly Cloudy
7:19 PM 49.5 °F - 32.4 °F 52% 30.12 in 10.0 mi SW 4.6 mph - N/A   Clear
7:38 PM 48.6 °F - 32.2 °F 53% 30.12 in 10.0 mi SW 4.6 mph - N/A   Clear
7:58 PM 48.7 °F - 32.4 °F 53% 30.12 in 10.0 mi WSW 4.6 mph - N/A   Clear
8:19 PM 45.5 °F 41.3 °F 32.9 °F 61% 30.12 in 10.0 mi West 8.1 mph - N/A   Clear
8:38 PM 43.7 °F 39.7 °F 32.4 °F 64% 30.12 in 10.0 mi West 6.9 mph - N/A   Clear
8:58 PM 43.3 °F 37.7 °F 32.4 °F 65% 30.12 in 10.0 mi West 10.4 mph - N/A   Clear
9:38 PM 45.7 °F - 32.2 °F 59% 30.12 in 10.0 mi Calm Calm - N/A   Clear
9:57 PM 44.1 °F - 32.4 °F 63% 30.12 in 10.0 mi Calm Calm - N/A   Clear
10:18 PM 43.3 °F - 32.4 °F 65% 30.12 in 10.0 mi Calm Calm - N/A   Clear
10:38 PM 43.5 °F 41.9 °F 32.0 °F 64% 30.12 in 10.0 mi NNW 3.5 mph - N/A   Clear
10:57 PM 44.4 °F 40.5 °F 32.0 °F 62% 30.12 in 10.0 mi NNW 6.9 mph - N/A   Clear
11:17 PM 42.4 °F 38.1 °F 32.0 °F 67% 30.11 in 10.0 mi NNW 6.9 mph - N/A   Clear
11:36 PM 43.9 °F 39.3 °F 31.8 °F 63% 30.11 in 10.0 mi NW 8.1 mph - N/A   Clear
11:56 PM 45.5 °F 44.2 °F 31.6 °F 58% 30.11 in 10.0 mi West 3.5 mph - N/A   Clear